TimeCDT,TemperatureF,Dew PointF,Humidity,Sea Level PressureIn,VisibilityMPH,Wind Direction,Wind SpeedMPH,Gust SpeedMPH,PrecipitationIn,Events,Conditions,WindDirDegrees,DateUTC
12:15 AM,50.0,32.0,50,30.28,10.0,Calm,Calm,-,N/A,,Clear,0,2012-10-29 05:15:00
12:35 AM,46.4,32.0,57,30.27,10.0,Calm,Calm,-,N/A,,Clear,0,2012-10-29 05:35:00
12:55 AM,48.2,32.0,54,30.27,10.0,Calm,Calm,-,N/A,,Clear,0,2012-10-29 05:55:00
1:15 AM,48.2,32.0,54,30.28,10.0,Calm,Calm,-,N/A,,Clear,0,2012-10-29 06:15:00
1:35 AM,46.4,32.0,57,30.29,10.0,Calm,Calm,-,N/A,,Clear,0,2012-10-29 06:35:00
1:55 AM,46.4,32.0,57,30.28,10.0,Calm,Calm,-,N/A,,Clear,0,2012-10-29 06:55:00
2:35 AM,46.4,33.8,62,30.29,10.0,Calm,Calm,-,N/A,,Clear,0,2012-10-29 07:35:00
2:55 AM,44.6,33.8,66,30.29,10.0,Calm,Calm,-,N/A,,Clear,0,2012-10-29 07:55:00
3:15 AM,44.6,32.0,61,30.29,10.0,Calm,Calm,-,N/A,,Clear,0,2012-10-29 08:15:00
3:35 AM,41.0,32.0,70,30.29,10.0,Calm,Calm,-,N/A,,Clear,0,2012-10-29 08:35:00
3:55 AM,42.8,32.0,66,30.29,10.0,Calm,Calm,-,N/A,,Clear,0,2012-10-29 08:55:00
4:35 AM,42.8,33.8,70,30.28,10.0,Calm,Calm,-,N/A,,Clear,0,2012-10-29 09:35:00
4:55 AM,42.8,33.8,70,30.29,10.0,Calm,Calm,-,N/A,,Clear,0,2012-10-29 09:55:00
5:15 AM,41.0,35.6,81,30.29,10.0,Calm,Calm,-,N/A,,Clear,0,2012-10-29 10:15:00
5:35 AM,37.4,33.8,87,30.29,10.0,Calm,Calm,-,N/A,,Clear,0,2012-10-29 10:35:00
5:55 AM,39.2,33.8,81,30.29,10.0,Calm,Calm,-,N/A,,Clear,0,2012-10-29 10:55:00
6:15 AM,41.0,33.8,76,30.29,10.0,Calm,Calm,-,N/A,,Clear,0,2012-10-29 11:15:00
6:35 AM,42.8,33.8,70,30.29,10.0,Calm,Calm,-,N/A,,Clear,0,2012-10-29 11:35:00
6:50 AM,42.8,35.6,76,30.29,10.0,NNE,4.6,-,N/A,,Clear,20,2012-10-29 11:50:00
6:55 AM,42.8,33.8,70,30.29,10.0,Calm,Calm,-,N/A,,Clear,0,2012-10-29 11:55:00
7:50 AM,42.8,35.6,76,30.31,10.0,Calm,Calm,-,N/A,,Clear,0,2012-10-29 12:50:00
8:50 AM,46.4,35.6,66,30.03,10.0,Calm,Calm,-,N/A,,Clear,0,2012-10-29 13:50:00
9:50 AM,51.8,37.4,58,30.34,10.0,Calm,Calm,-,N/A,,Clear,0,2012-10-29 14:50:00
10:50 AM,57.2,30.2,36,30.33,10.0,South,3.5,-,N/A,,Clear,170,2012-10-29 15:50:00
11:50 AM,60.8,24.8,25,30.31,10.0,South,4.6,-,N/A,,Clear,170,2012-10-29 16:50:00
12:50 PM,62.6,26.6,26,30.29,10.0,Calm,Calm,-,N/A,,Clear,0,2012-10-29 17:50:00
1:50 PM,64.4,24.8,22,30.25,10.0,Calm,Calm,-,N/A,,Clear,0,2012-10-29 18:50:00
4:50 PM,68.0,21.2,17,30.17,10.0,SSE,3.5,-,N/A,,Clear,150,2012-10-29 21:50:00
5:50 PM,66.2,24.8,21,30.16,10.0,ESE,3.5,-,N/A,,Clear,120,2012-10-29 22:50:00
6:50 PM,62.6,26.6,26,30.15,10.0,East,3.5,-,N/A,,Clear,90,2012-10-29 23:50:00
7:50 PM,57.2,30.2,36,30.16,10.0,Calm,Calm,-,N/A,,Clear,0,2012-10-30 00:50:00
10:35 PM,53.6,33.8,47,30.17,10.0,Calm,Calm,-,N/A,,Clear,0,2012-10-30 03:35:00
10:55 PM,53.6,33.8,47,30.17,10.0,SSE,3.5,-,N/A,,Clear,150,2012-10-30 03:55:00
11:15 PM,53.6,33.8,47,30.17,10.0,South,4.6,-,N/A,,Clear,170,2012-10-30 04:15:00
11:35 PM,53.6,33.8,47,30.16,10.0,South,3.5,-,N/A,,Clear,180,2012-10-30 04:35:00
11:55 PM,51.8,35.6,54,30.15,10.0,South,4.6,-,N/A,,Clear,180,2012-10-30 04:55:00